| time (UTC) | temp C | wind direction | speed KPH | gust KPH | rain 1hr cm | rain 24hr cm | rain mn cm | humidity % | barometer mb |
| 20260508172041 | 21 | 321 | 8.0 | 24.1 | 0.00 | 0.00 | 0.00 | 34 | 1013.4 |
| 20260508171033 | 21 | 234 | 8.0 | 22.5 | 0.00 | 0.00 | 0.00 | 35 | 1013.6 |
| 20260508170039 | 21 | 219 | 3.2 | 17.7 | 0.00 | 0.00 | 0.00 | 37 | 1013.7 |
| 20260508165031 | 21 | 242 | 6.4 | 19.3 | 0.00 | 0.00 | 0.00 | 36 | 1013.9 |
| 20260508164017 | 21 | 250 | 6.4 | 17.7 | 0.00 | 0.00 | 0.00 | 39 | 1013.8 |
| 20260508163031 | 20 | 252 | 1.6 | 11.3 | 0.00 | 0.00 | 0.00 | 39 | 1013.7 |
| 20260508162025 | 20 | 248 | 1.6 | 14.5 | 0.00 | 0.00 | 0.00 | 41 | 1014.0 |
| 20260508161038 | 20 | 331 | 6.4 | 16.1 | 0.00 | 0.00 | 0.00 | 40 | 1014.2 |
| 20260508160023 | 20 | 257 | 6.4 | 16.1 | 0.00 | 0.00 | 0.00 | 38 | 1014.3 |
| 20260508155016 | 20 | 343 | 6.4 | 22.5 | 0.00 | 0.00 | 0.00 | 40 | 1014.4 |
| 20260508154029 | 19 | 246 | 8.0 | 20.9 | 0.00 | 0.00 | 0.00 | 40 | 1014.7 |
| 20260508153023 | 20 | 275 | 6.4 | 17.7 | 0.00 | 0.00 | 0.00 | 42 | 1014.7 |
| 20260508152017 | 19 | 242 | 8.0 | 17.7 | 0.00 | 0.00 | 0.00 | 39 | 1014.9 |
| 20260508151030 | 19 | 229 | 3.2 | 17.7 | 0.00 | 0.00 | 0.00 | 40 | 1014.9 |
| 20260508150016 | 18 | 261 | 3.2 | 16.1 | 0.00 | 0.00 | 0.00 | 41 | 1014.9 |
| 20260508145031 | 18 | 279 | 3.2 | 16.1 | 0.00 | 0.00 | 0.00 | 39 | 1015.0 |
| 20260508144015 | 18 | 273 | 3.2 | 14.5 | 0.00 | 0.00 | 0.00 | 38 | 1015.1 |
| 20260508143038 | 17 | 241 | 1.6 | 14.5 | 0.00 | 0.00 | 0.00 | 43 | 1015.1 |
| 20260508142022 | 16 | 261 | 4.8 | 12.9 | 0.00 | 0.00 | 0.00 | 43 | 1015.2 |
| 20260508141016 | 15 | 261 | 3.2 | 11.3 | 0.00 | 0.00 | 0.00 | 46 | 1015.3 |
| 20260508140026 | 15 | 242 | 0.0 | 8.0 | 0.00 | 0.00 | 0.00 | 49 | 1015.2 |
| 20260508135020 | 14 | 251 | 1.6 | 8.0 | 0.00 | 0.00 | 0.00 | 48 | 1015.4 |
| 20260508134014 | 13 | 258 | 1.6 | 9.7 | 0.00 | 0.00 | 0.00 | 50 | 1015.5 |
| 20260508133028 | 13 | 252 | 1.6 | 6.4 | 0.00 | 0.00 | 0.00 | 53 | 1015.6 |
| 20260508132037 | 13 | 246 | 4.8 | 11.3 | 0.00 | 0.00 | 0.00 | 54 | 1015.8 |
| 20260508131030 | 12 | 253 | 1.6 | 8.0 | 0.00 | 0.00 | 0.00 | 58 | 1015.9 |
| 20260508130036 | 12 | 254 | 0.0 | 8.0 | 0.00 | 0.00 | 0.00 | 60 | 1015.9 |
| 20260508125029 | 11 | 281 | 0.0 | 8.0 | 0.00 | 0.00 | 0.00 | 64 | 1015.9 |
| 20260508124021 | 11 | 285 | 1.6 | 4.8 | 0.00 | 0.00 | 0.00 | 66 | 1015.8 |
| 20260508123016 | 10 | 285 | 0.0 | 4.8 | 0.00 | 0.00 | 0.00 | 70 | 1015.7 |
| 20260508122030 | 10 | 285 | 0.0 | 4.8 | 0.00 | 0.00 | 0.00 | 72 | 1015.7 |
| 20260508121016 | 9 | 286 | 1.6 | 6.4 | 0.00 | 0.00 | 0.00 | 75 | 1015.6 |
| 20260508120032 | 8 | 324 | 0.0 | 4.8 | 0.00 | 0.00 | 0.00 | 79 | 1015.7 |
| 20260508115017 | 7 | 337 | 0.0 | 0.0 | 0.00 | 0.00 | 0.00 | 80 | 1015.5 |
| 20260508114041 | 7 | 337 | 0.0 | 0.0 | 0.00 | 0.00 | 0.00 | 81 | 1015.4 |
| 20260508113034 | 7 | 337 | 0.0 | 0.0 | 0.00 | 0.00 | 0.00 | 82 | 1015.3 |
| 20260508112019 | 7 | 337 | 0.0 | 0.0 | 0.00 | 0.00 | 0.00 | 81 | 1015.2 |
| 20260508111013 | 7 | 337 | 0.0 | 0.0 | 0.00 | 0.00 | 0.00 | 80 | 1015.0 |
| 20260508110020 | 7 | 337 | 0.0 | 0.0 | 0.00 | 0.00 | 0.00 | 80 | 1014.9 |
| 20260508105014 | 7 | 337 | 0.0 | 0.0 | 0.00 | 0.00 | 0.00 | 79 | 1014.9 |
| 20260508104029 | 7 | 337 | 0.0 | 0.0 | 0.00 | 0.00 | 0.00 | 79 | 1014.8 |
| 20260508103043 | 7 | 337 | 0.0 | 0.0 | 0.00 | 0.00 | 0.00 | 79 | 1014.8 |
| 20260508102015 | 7 | 337 | 0.0 | 0.0 | 0.00 | 0.00 | 0.00 | 78 | 1014.7 |
| 20260508101029 | 8 | 337 | 0.0 | 0.0 | 0.00 | 0.00 | 0.00 | 78 | 1014.5 |
| 20260508100015 | 8 | 337 | 0.0 | 0.0 | 0.00 | 0.00 | 0.00 | 77 | 1014.3 |
| 20260508095029 | 8 | 337 | 0.0 | 0.0 | 0.00 | 0.00 | 0.00 | 76 | 1014.2 |
| 20260508094023 | 8 | 337 | 0.0 | 0.0 | 0.00 | 0.00 | 0.00 | 75 | 1014.2 |
| 20260508093033 | 9 | 337 | 0.0 | 0.0 | 0.00 | 0.00 | 0.00 | 74 | 1014.1 |
| 20260508092018 | 9 | 337 | 0.0 | 0.0 | 0.00 | 0.00 | 0.00 | 73 | 1014.1 |
| 20260508091042 | 10 | 337 | 0.0 | 0.0 | 0.00 | 0.00 | 0.00 | 72 | 1014.1 |
| 20260508090019 | 10 | 337 | 0.0 | 0.0 | 0.00 | 0.00 | 0.00 | 71 | 1014.1 |
| 20260508085013 | 10 | 337 | 0.0 | 0.0 | 0.00 | 0.00 | 0.00 | 71 | 1013.9 |
| 20260508084055 | 10 | 337 | 0.0 | 0.0 | 0.00 | 0.00 | 0.00 | 70 | 1013.7 |
| 20260508083018 | 10 | 337 | 0.0 | 1.6 | 0.00 | 0.00 | 0.00 | 69 | 1013.7 |
| 20260508082013 | 10 | 337 | 1.6 | 6.4 | 0.00 | 0.00 | 0.00 | 69 | 1013.5 |
| 20260508081026 | 10 | 330 | 0.0 | 1.6 | 0.00 | 0.00 | 0.00 | 71 | 1013.3 |
| 20260508080027 | 10 | 330 | 0.0 | 4.8 | 0.00 | 0.00 | 0.00 | 72 | 1013.2 |
| 20260508075041 | 10 | 329 | 0.0 | 6.4 | 0.00 | 0.00 | 0.00 | 76 | 1013.1 |
| 20260508074015 | 10 | 286 | 0.0 | 6.4 | 0.00 | 0.00 | 0.00 | 79 | 1013.1 |
| 20260508073027 | 10 | 244 | 0.0 | 4.8 | 0.00 | 0.00 | 0.00 | 82 | 1012.7 |
| 20260508072041 | 10 | 232 | 0.0 | 4.8 | 0.00 | 0.00 | 0.00 | 84 | 1012.6 |
| 20260508071013 | 10 | 225 | 0.0 | 0.0 | 0.00 | 0.00 | 0.00 | 84 | 1012.6 |
| 20260508070023 | 10 | 225 | 0.0 | 0.0 | 0.00 | 0.00 | 0.00 | 84 | 1012.4 |
| 20260508065018 | 10 | 225 | 0.0 | 11.3 | 0.00 | 0.03 | 0.00 | 84 | 1012.4 |
| 20260508064032 | 10 | 252 | 0.0 | 6.4 | 0.00 | 0.03 | 0.00 | 85 | 1012.2 |
| 20260508063026 | 10 | 247 | 0.0 | 8.0 | 0.00 | 0.03 | 0.00 | 85 | 1011.9 |
| 20260508062018 | 10 | 244 | 0.0 | 6.4 | 0.00 | 0.03 | 0.00 | 84 | 1012.0 |
| 20260508061052 | 10 | 245 | 1.6 | 6.4 | 0.00 | 0.03 | 0.00 | 84 | 1011.9 |
| 20260508060018 | 10 | 257 | 3.2 | 9.7 | 0.00 | 0.03 | 0.00 | 84 | 1011.9 |
| 20260508055028 | 10 | 256 | 3.2 | 8.0 | 0.00 | 0.10 | 0.00 | 84 | 1011.9 |
| 20260508054021 | 10 | 252 | 1.6 | 6.4 | 0.00 | 0.10 | 0.00 | 84 | 1011.9 |
| 20260508053036 | 11 | 250 | 1.6 | 8.0 | 0.00 | 0.10 | 0.00 | 84 | 1011.8 |
| 20260508052029 | 11 | 248 | 3.2 | 11.3 | 0.00 | 0.10 | 0.00 | 83 | 1011.8 |
| 20260508051022 | 11 | 249 | 3.2 | 11.3 | 0.00 | 0.10 | 0.00 | 83 | 1011.8 |
| 20260508050029 | 11 | 257 | 1.6 | 8.0 | 0.00 | 0.10 | 0.00 | 82 | 1011.5 |
| 20260508045023 | 11 | 253 | 3.2 | 6.4 | 0.00 | 0.10 | 0.00 | 82 | 1011.5 |
| 20260508044037 | 11 | 252 | 1.6 | 8.0 | 0.00 | 0.10 | 0.00 | 82 | 1011.4 |
| 20260508043022 | 11 | 226 | 1.6 | 8.0 | 0.00 | 0.10 | 0.00 | 82 | 1011.3 |
| 20260508042016 | 11 | 223 | 1.6 | 6.4 | 0.00 | 0.10 | 0.00 | 81 | 1011.2 |
| 20260508041048 | 11 | 221 | 1.6 | 6.4 | 0.00 | 0.10 | 0.00 | 81 | 1011.2 |
| 20260508040043 | 11 | 212 | 3.2 | 6.4 | 0.00 | 0.10 | 0.00 | 80 | 1011.1 |
| 20260508035036 | 11 | 204 | 0.0 | 1.6 | 0.00 | 0.10 | 0.10 | 79 | 1011.1 |
| 20260508034030 | 11 | 204 | 0.0 | 3.2 | 0.00 | 0.10 | 0.10 | 78 | 1011.1 |
| 20260508033044 | 11 | 199 | 0.0 | 0.0 | 0.00 | 0.10 | 0.10 | 77 | 1011.0 |
| 20260508032036 | 11 | 199 | 0.0 | 1.6 | 0.00 | 0.10 | 0.10 | 77 | 1011.1 |
| 20260508031020 | 11 | 199 | 0.0 | 0.0 | 0.00 | 0.10 | 0.10 | 76 | 1011.2 |
| 20260508030036 | 11 | 199 | 0.0 | 0.0 | 0.00 | 0.10 | 0.10 | 76 | 1011.1 |
| 20260508025021 | 11 | 199 | 0.0 | 3.2 | 0.00 | 0.10 | 0.10 | 75 | 1011.0 |
| 20260508024016 | 12 | 197 | 0.0 | 0.0 | 0.00 | 0.10 | 0.10 | 74 | 1011.1 |
| 20260508023030 | 12 | 197 | 0.0 | 1.6 | 0.00 | 0.10 | 0.10 | 74 | 1011.1 |
| 20260508022023 | 12 | 197 | 0.0 | 0.0 | 0.00 | 0.10 | 0.10 | 73 | 1011.2 |
| 20260508021018 | 12 | 197 | 0.0 | 1.6 | 0.00 | 0.10 | 0.10 | 72 | 1011.1 |
| 20260508020042 | 12 | 197 | 0.0 | 1.6 | 0.00 | 0.10 | 0.10 | 71 | 1011.1 |
| 20260508015016 | 12 | 197 | 0.0 | 3.2 | 0.00 | 0.10 | 0.10 | 71 | 1010.9 |
| 20260508014029 | 12 | 187 | 0.0 | 0.0 | 0.00 | 0.10 | 0.10 | 70 | 1010.9 |
| 20260508013023 | 12 | 187 | 0.0 | 3.2 | 0.00 | 0.10 | 0.10 | 69 | 1010.8 |
| 20260508012037 | 12 | 185 | 0.0 | 1.6 | 0.00 | 0.10 | 0.10 | 68 | 1010.7 |
| 20260508011032 | 13 | 185 | 0.0 | 1.6 | 0.00 | 0.10 | 0.10 | 67 | 1010.6 |
| 20260508010040 | 13 | 184 | 0.0 | 0.0 | 0.00 | 0.10 | 0.10 | 67 | 1010.3 |
| 20260508005034 | 13 | 184 | 0.0 | 0.0 | 0.00 | 0.10 | 0.10 | 65 | 1010.3 |
| 20260508004017 | 13 | 184 | 0.0 | 1.6 | 0.00 | 0.10 | 0.10 | 64 | 1010.1 |
| 20260508003032 | 13 | 184 | 0.0 | 0.0 | 0.00 | 0.10 | 0.10 | 63 | 1010.0 |
| 20260508002046 | 14 | 184 | 0.0 | 3.2 | 0.00 | 0.10 | 0.10 | 62 | 1010.0 |
| 20260508001039 | 14 | 184 | 0.0 | 1.6 | 0.00 | 0.10 | 0.10 | 61 | 1009.9 |
| 20260508000036 | 15 | 184 | 0.0 | 1.6 | 0.00 | 0.10 | 0.10 | 60 | 1009.7 |
| 20260507235030 | 15 | 184 | 0.0 | 1.6 | 0.00 | 0.10 | 0.10 | 59 | 1009.4 |
| 20260507234015 | 15 | 184 | 0.0 | 6.4 | 0.00 | 0.10 | 0.10 | 57 | 1009.4 |
| 20260507233028 | 15 | 159 | 0.0 | 3.2 | 0.00 | 0.10 | 0.10 | 57 | 1009.2 |
| 20260507232023 | 16 | 175 | 0.0 | 4.8 | 0.00 | 0.10 | 0.10 | 57 | 1009.1 |
| 20260507231036 | 16 | 150 | 0.0 | 0.0 | 0.00 | 0.10 | 0.10 | 56 | 1009.0 |
| 20260507230054 | 16 | 150 | 0.0 | 4.8 | 0.00 | 0.10 | 0.10 | 56 | 1009.0 |
| 20260507225019 | 16 | 167 | 0.0 | 3.2 | 0.00 | 0.10 | 0.10 | 56 | 1009.0 |
| 20260507224012 | 16 | 184 | 0.0 | 4.8 | 0.00 | 0.10 | 0.10 | 56 | 1008.8 |
| 20260507223019 | 16 | 140 | 0.0 | 3.2 | 0.00 | 0.10 | 0.10 | 56 | 1008.9 |
| 20260507222014 | 17 | 146 | 1.6 | 3.2 | 0.00 | 0.10 | 0.10 | 56 | 1008.7 |
| 20260507221027 | 17 | 115 | 1.6 | 4.8 | 0.00 | 0.10 | 0.10 | 55 | 1008.7 |
| 20260507220015 | 17 | 153 | 0.0 | 3.2 | 0.00 | 0.10 | 0.10 | 55 | 1008.7 |
| 20260507215027 | 17 | 150 | 0.0 | 4.8 | 0.00 | 0.10 | 0.10 | 57 | 1008.8 |
| 20260507214021 | 17 | 109 | 0.0 | 6.4 | 0.00 | 0.10 | 0.10 | 54 | 1008.8 |
| 20260507213035 | 17 | 111 | 0.0 | 3.2 | 0.00 | 0.10 | 0.10 | 55 | 1008.9 |
| 20260507212020 | 17 | 117 | 0.0 | 4.8 | 0.00 | 0.10 | 0.10 | 54 | 1008.9 |
| 20260507211014 | 17 | 120 | 0.0 | 9.7 | 0.00 | 0.10 | 0.10 | 54 | 1009.2 |
| 20260507210023 | 17 | 117 | 0.0 | 6.4 | 0.00 | 0.10 | 0.10 | 56 | 1009.1 |
| 20260507205017 | 17 | 150 | 0.0 | 3.2 | 0.00 | 0.10 | 0.10 | 55 | 1009.1 |
| 20260507204032 | 17 | 155 | 0.0 | 6.4 | 0.00 | 0.10 | 0.10 | 53 | 1009.1 |
| 20260507203027 | 17 | 123 | 1.6 | 6.4 | 0.00 | 0.10 | 0.10 | 53 | 1008.9 |
| 20260507202021 | 17 | 162 | 0.0 | 4.8 | 0.00 | 0.10 | 0.10 | 54 | 1008.8 |
| 20260507201035 | 17 | 122 | 0.0 | 8.0 | 0.00 | 0.10 | 0.10 | 56 | 1008.8 |
| 20260507200022 | 17 | 96 | 0.0 | 1.6 | 0.00 | 0.10 | 0.10 | 54 | 1008.8 |
| 20260507195036 | 17 | 95 | 0.0 | 3.2 | 0.00 | 0.10 | 0.10 | 53 | 1009.0 |
| 20260507194020 | 17 | 92 | 0.0 | 4.8 | 0.00 | 0.10 | 0.10 | 56 | 1009.2 |
| 20260507193014 | 17 | 123 | 0.0 | 1.6 | 0.00 | 0.10 | 0.10 | 56 | 1009.4 |
| 20260507192027 | 17 | 123 | 0.0 | 4.8 | 0.00 | 0.10 | 0.10 | 55 | 1009.3 |
| 20260507191041 | 16 | 167 | 0.0 | 4.8 | 0.00 | 0.10 | 0.10 | 52 | 1009.5 |
| 20260507190036 | 17 | 133 | 0.0 | 3.2 | 0.00 | 0.10 | 0.10 | 55 | 1009.7 |
| 20260507185020 | 16 | 142 | 0.0 | 3.2 | 0.00 | 0.10 | 0.10 | 55 | 1009.8 |
| 20260507184035 | 16 | 153 | 0.0 | 4.8 | 0.00 | 0.10 | 0.10 | 54 | 1010.0 |
| 20260507183027 | 16 | 137 | 0.0 | 0.0 | 0.00 | 0.10 | 0.10 | 59 | 1010.1 |
| 20260507182021 | 16 | 137 | 0.0 | 4.8 | 0.00 | 0.10 | 0.10 | 57 | 1010.1 |
| 20260507181014 | 16 | 105 | 0.0 | 1.6 | 0.00 | 0.10 | 0.10 | 58 | 1010.1 |
| 20260507180019 | 16 | 105 | 0.0 | 0.0 | 0.00 | 0.10 | 0.10 | 56 | 1010.6 |
| 20260507175012 | 16 | 103 | 0.0 | 0.0 | 0.00 | 0.10 | 0.10 | 58 | 1010.6 |
| 20260507174026 | 15 | 104 | 0.0 | 0.0 | 0.00 | 0.10 | 0.10 | 56 | 1010.8 |
| 20260507173020 | 15 | 103 | 0.0 | 1.6 | 0.00 | 0.10 | 0.10 | 56 | 1011.0 |